STARLINK-36753, 67694

Orbit data source: Space-Track

STARLINK-36753, 67694 is a payload satellite owned by SpaceX/Seattle (US) in SSO that was launched on Sat, 07 Feb 2026 UTC via an FALCON 9 launch vehicle from the Air Force Western Test Range (AFWTR). Payload-class satellites include a variety of spacecraft equipped with specific instruments for various scientific and technological missions. These include communications satellites like Starlink; space stations such as the ISS; scientific satellites like the Hubble; Earth observation satellites from companies like Planet Labs, Umbra, and HawkEye 360; GPS; miniature CubeSats for education and research; and military/defense satellites.

Loading next visibility...
Identifier
67694, 2026-025B
Orbit
SSO
Country
Flag of USUS
Related business
Manufacturer
SpaceX/Seattle
Mission
Operational spacecraft
Bus & Motor
STARLINK V2MO, Unknown motor
Mass
575 kg wet, ~530 kg dry
Launch date (UTC)
2026-02-07 (1 month ago)
Launch vehicle
FALCON 9
Launch site
Air Force Western Test Range (AFWTR)
Object type
Payload
Rocket body
Debris
Shape & HBR
Unknown
Radar Cross Section
RCS unknown

Expand to show TLE details & history
Last TLE update: 13 hours ago

TLE from 13 hours ago
0 STARLINK-36753
1 67694U 26025B   26071.77406702  .00427872  00000-0  27102-2 0  9990
2 67694  97.2832 183.4756 0000760 302.3638  57.7553 15.75341715  6431
Epoch: 2026-03-12T18:34Z
TLE epoch observation values (Epoch: 2026-03-12T18:34:39.390Z)
Latitude
-0.00009°
Longitude
94.39236°
Altitude
346.555 km
Speed
7.701 km/s
True Right ascension
12h 13m 54s
True Declination
0° 00' 00"
Sunlit
Object was in full shadow at epoch
Visualization orbit readout
Latitude
Unknown
Longitude
Unknown
Altitude
Unknown
Speed
Unknown
Apparent Right ascension
Unknown
Apparent Declination
Unknown
Sunlit
N/A
Visualization observer readout
Local Sidereal Time
12:25:11
Azimuth
Unknown
Elevation
Unknown
Doppler factor
Unknown
Orbital elements
Apogee altitude
341.057 km
Perigee altitude
340.035 km
Semi-major axis
6,718.683 km
Eccentricity
0.00008
Inclination
97.2832°
RAAN
183.4756°
Arg. of periapsis
302.3638°
True anomaly
57.76267°
Mean anomaly
57.7553°
Eccentric anomaly
57.75898°
Mean motion
3.9411 °/min
Orbital period
91.35 mins
BSTAR
0.0027102
Loading maneuver chart data...
Computing Atmospheric mass density...
Loading historical data...
Loading historical data...
Loading historical data...
Loading historical data...
Loading historical data...
Loading historical data...
Loading historical data...

Documentation

Showing up to 5 results
|